Location: Katowice
(50.2611°N, 19.0242°E)
Time: 15:11:29
(UTC+02:00)

A-11 Canister half - All Passes

Search period start: 25 August 2019 00:00
Search period end: 04 September 2019 00:00
Orbit: 1514 x 1686 km, 47.2° (Epoch: 24 August)

Date Brightness Start Highest point End Pass type
(mag) Time Alt. Az. Time Alt. Az. Time Alt. Az.
25 Aug - 01:36:08 10° W 01:42:53 21° SW 01:49:45 10° S visible
25 Aug - 16:56:11 10° SSW 17:03:58 31° SE 17:11:56 10° E daylight
25 Aug - 18:58:24 10° WSW 19:07:37 63° SSE 19:17:12 10° E daylight
25 Aug - 21:02:42 10° W 21:12:13 75° S 21:22:07 10° ESE visible
25 Aug - 23:07:23 10° W 23:16:40 53° SSW 23:26:16 10° SE visible
26 Aug - 01:13:04 10° W 01:20:03 22° SW 01:27:12 10° S visible
26 Aug - 16:33:33 10° SSW 16:41:09 29° SE 16:48:56 10° E daylight
26 Aug - 18:35:34 10° SW 18:44:44 62° SSE 18:54:15 10° E daylight
26 Aug - 20:39:48 10° W 20:49:18 75° S 20:59:10 10° E visible
26 Aug - 22:44:28 10° W 22:53:47 55° SSW 23:03:23 10° SE visible
27 Aug - 00:50:01 10° W 00:57:14 24° SW 01:04:37 10° S visible
27 Aug - 16:10:56 10° S 16:18:21 28° SE 16:25:54 10° E daylight
27 Aug - 18:12:44 10° SW 18:21:51 60° SSE 18:31:17 10° E daylight
27 Aug - 20:16:54 10° W 20:26:23 76° S 20:36:12 10° E visible
27 Aug - 22:21:33 10° W 22:30:53 56° SSW 22:40:31 10° SE visible
28 Aug - 00:26:58 10° W 00:34:24 25° SW 00:42:00 10° S visible
28 Aug - 15:48:20 10° S 15:55:32 26° SE 16:02:53 10° E daylight
28 Aug - 17:49:55 10° SW 17:58:58 58° SSE 18:08:21 10° E daylight
28 Aug - 19:54:01 10° W 20:03:27 76° S 20:13:16 10° E visible
28 Aug - 21:58:40 10° W 22:07:59 58° SSW 22:17:39 10° SE visible
29 Aug - 00:03:58 10° W 00:11:34 27° SW 00:19:22 10° S visible
29 Aug - 15:25:46 10° S 15:32:44 25° SE 15:39:50 10° E daylight
29 Aug - 17:27:05 10° SW 17:36:06 56° SSE 17:45:24 10° E daylight
29 Aug - 19:31:08 10° W 19:40:32 76° S 19:50:19 10° E daylight
29 Aug - 21:35:46 10° W 21:45:05 60° SSW 21:54:45 10° SE visible
29 Aug - 23:40:58 10° W 23:48:44 28° SW 23:56:43 10° S visible
30 Aug - 15:03:13 10° S 15:09:56 23° SE 15:16:46 10° E daylight
30 Aug - 17:04:17 10° SW 17:13:13 55° SSE 17:22:27 10° E daylight
30 Aug - 19:08:15 10° W 19:17:37 75° S 19:27:22 10° E daylight
30 Aug - 21:12:52 10° W 21:22:11 61° SSW 21:31:52 10° SE visible
30 Aug - 23:17:59 10° W 23:25:54 30° SW 23:34:03 10° SSE visible
31 Aug - 14:40:42 10° S 14:47:09 22° SE 14:53:41 10° E daylight
31 Aug - 16:41:28 10° SW 16:50:21 53° SSE 16:59:30 10° E daylight
31 Aug - 18:45:21 10° W 18:54:42 75° S 19:04:24 10° E daylight
31 Aug - 20:49:58 10° W 20:59:17 63° SSW 21:08:57 10° ESE visible
31 Aug - 22:55:01 10° W 23:03:04 31° SW 23:11:20 10° SSE visible
01 Sep - 14:18:12 10° S 14:24:22 20° SE 14:30:35 10° E daylight
01 Sep - 16:18:41 10° SW 16:27:30 51° SSE 16:36:33 10° E daylight
01 Sep - 18:22:28 10° WSW 18:31:48 75° S 18:41:27 10° E daylight
01 Sep - 20:27:04 10° W 20:36:24 64° SSW 20:46:04 10° ESE visible
01 Sep - 22:32:03 10° W 22:40:13 33° SW 22:48:38 10° SSE visible
02 Sep - 13:55:45 10° S 14:01:34 19° SE 14:07:28 10° E daylight
02 Sep - 15:55:54 10° SW 16:04:38 49° SSE 16:13:36 10° E daylight
02 Sep - 17:59:35 10° WSW 18:08:53 74° S 18:18:31 10° E daylight
02 Sep - 20:04:10 10° W 20:13:29 65° SSW 20:23:09 10° ESE visible
02 Sep - 22:09:05 10° W 22:17:22 34° SW 22:25:53 10° SSE visible
03 Sep - 13:33:20 10° SSE 13:38:48 17° SE 13:44:18 10° E daylight
03 Sep - 15:33:07 10° SW 15:41:47 47° SSE 15:50:39 10° E daylight
03 Sep - 17:36:43 10° WSW 17:45:59 74° S 17:55:34 10° E daylight
03 Sep - 19:41:16 10° W 19:50:35 67° SSW 20:00:14 10° ESE visible
03 Sep - 21:46:09 10° W 21:54:32 36° SW 22:03:10 10° SSE visible
03 Sep - 23:56:20 10° WSW 23:57:11 10° WSW 23:58:02 10° SW visible
